Flag for U.S.A. Weather past 2 weeks in Monterey, California, U.S.A.

Now
56 °F

Fog.


Feels Like: 56 °F
Forecast: 56 / 63 °F
Wind: No wind

Location: Monterey Peninsula Airport

Current Time: Dec 22, 2014 at 7:20:36 AM

Latest Report: Dec 22, 2014 at 6:54 AM


Visibility: 0 mi

Pressure: 30.28 "Hg

Humidity: 97%

Dew point: 55 °F

Location of MontereyLocation

Historic Weather in Monterey — Graph

°F

Monterey temperature yesterday

Maximum temperature yesterday: 63 °F (at 11:54 AM)
Minimum temperature yesterday: 56 °F (at 2:54 AM)
Average temperature yesterday: 59 °F

Past Weeks' High & Low Weather Summary

 TemperatureHumidityPressure
High69 °F (Dec 11, 8:54 AM)100% (Dec 20, 1:54 AM)30.37 "Hg (Dec 20, 1:54 AM)
Low46 °F (Dec 13, 11:54 PM)48% (Dec 16, 1:54 PM)29.63 "Hg (Dec 11, 2:00 PM)
Average56 °F82%30.10 "Hg
* Reported Dec 7 5:01 AM — Dec 22 5:58 AM, Monterey, Weather by CustomWeather, © 2014

Note: Actual official high and low records may vary slightly from our data, if they occured in-between our weather recording intervals... More about our weather records

Advertising

Monterey weather history for previous 24 hours

 ConditionsComfort  
Time TempWeatherWind HumidityBarometerVisibility
5:58 AM
Dec 22
55 °FFog.7 mph100%30.25 "Hg3 mi
4:54 AM56 °FFog.5 mph97%30.29 "Hg0 mi
3:54 AM56 °FFog.No wind97%30.29 "Hg1 mi
3:02 AM55 °FFog.3 mph100%30.26 "Hg0 mi
2:54 AM57 °FFog.No wind96%30.29 "Hg1 mi
1:54 AM57 °FLow clouds.No wind96%30.30 "Hg9 mi
12:54 AM58 °FPassing clouds.No wind93%30.30 "Hg10 mi
11:54 PM
Dec 21
59 °FOvercast.No wind93%30.32 "Hg10 mi
10:54 PM60 °FMostly cloudy.No wind90%30.33 "Hg10 mi
9:54 PM60 °FLow clouds.No wind93%30.33 "Hg10 mi
8:54 PM60 °FLow clouds.3 mph93%30.33 "Hg10 mi
7:54 PM60 °FOvercast.6 mph93%30.32 "Hg10 mi
6:54 PM60 °FMostly cloudy.3 mph93%30.32 "Hg10 mi
5:54 PM60 °FLow clouds.6 mph93%30.32 "Hg10 mi
4:54 PM60 °FLow clouds.No wind93%30.31 "Hg10 mi
3:54 PM60 °FLow clouds.No wind93%30.30 "Hg10 mi
3:01 PM61 °FLow clouds.No wind88%30.28 "Hg10 mi
2:54 PM61 °FMore clouds than sun.No wind87%30.31 "Hg10 mi
1:54 PM61 °FOvercast.5 mph87%30.31 "Hg7 mi
1:01 PM61 °FOvercast.9 mph83%30.28 "Hg10 mi
11:54 AM63 °FSunny.3 mph75%30.32 "Hg10 mi
10:54 AM61 °FOvercast.3 mph78%30.35 "Hg10 mi
9:54 AM61 °FOvercast.No wind81%30.37 "Hg10 mi
8:54 AM60 °FPassing clouds.No wind83%30.34 "Hg10 mi
7:54 AM56 °FPartly sunny.No wind93%30.34 "Hg10 mi
Weather by CustomWeather, © 2014

See weather overviewHow to use our weather pages